COSMOS 2432 (719)

Last updated on Fri Jun 19 2026 17:09:56 GMT+0000 (Coordinated Universal Time)

1 32276U 07052B 26169.43377550 -.00000056 00000+0 00000+0 0 9992 2 32276 65.5932 316.0195 0007652 331.4172 57.1212 2.13103035145116
UTC large
Height (km)
Speed (km/s)
/
Latitude / Longitude
Inclination (degrees)
Orbital Period (minutes)
Azimuth
Elevation
Range (km)
Doppler Factor

Next 0 passes for location: London (51.5072 / 0.1276)

No passes found over London.
COSMOS 2432 (719)